Location: Eurasberg
(48.3353°N, 11.0839°E)
Time: 09:23:11
(UTC+00:00)

Cosmos 2184 Rocket - Pass Details

Date: 18 January 2026
Orbit: 959 x 1001 km, 82.9° (Epoch: 17 February)

Event Time Altitude Azimuth Distance (km) Brightness Sun altitude
Rises 04:51:51 0° 195° (SSW) 3,649 6.9 -20.8°
Reaches altitude 10° 04:54:23 10° 198° (SSW) 2,701 6.2 -20.3°
Maximum altitude 05:00:31 68° 281° (WNW) 1,035 3.9 -19.3°
Drops below altitude 10° 05:06:41 10° 5° (N) 2,704 6.3 -18.3°
Sets 05:09:13 0° 8° (N) 3,653 7.0 -17.9°
